Content
SEND FEEDBACK

Daily
Averages
Monthly
Summary
United States of America

EARTH CITY, MISSOURI


Home > North America > United States > Missouri
Elevation: 476 feet     Latitude: 38 46N     Longitude: 090 30W

WEATHER
 
SELECT A DAY
Number of Records: 203,490;   Date Range: 1/1/95 - 8/12/14
 
SHARE

PRINT THIS DATA

[ ← Previous Day ]
WEATHER ALMANAC - MARCH 29, 2013
[ Next Day → ]
[ °C ]   °F
Weather ElementAverageHighLow
Temperature52.8 °F61 °F (3:51 pm)43 °F (6:51 am)
Dewpoint40.1 °F42.1 °F (12:51 pm)36 °F (1:51 am)
Humidity62.9 %80 % (6:51 am)48 % (4:51 pm)
Barometer30.23 in30.26 in (10:51 am)30.19 in (4:51 pm)
Wind Speed6.7 mph16.1 mph (1:51 am)
Weather ElementAverage
Visibility9.7 mi
Wind DirectionENE (83 °)

Weather ElementTotal
Precipitation---
Heating Degree Days13 (Base 65)
Growing Degree Days2 (Base 50)
Averaged from 23 records on March 29, 2013
WEATHER CONDITIONS BREAKOUT
WIND DIRECTION BREAKOUT
WEATHER BY HOUR - MARCH 29, 2013
[ °C ]   °F
Local TimeTemperatureDewpointHumidityBarometerVisibilityWind DirectionWind SpeedGust SpeedPrecipitationEventsConditions
1:51 AM50.0 °F36.0 °F59 %30.25 in10.0 miSE (140°)16.1 mphMostly Cloudy
2:51 AM48.0 °F37.9 °F68 %30.23 in10.0 miESE (120°)9.2 mphMostly Cloudy
3:51 AM46.9 °F37.9 °F71 %30.23 in10.0 miESE (120°)9.2 mphMostly Cloudy
4:51 AM46.4 °F39.2 °F76 %30.22 in10.0 miSE (130°)9.2 mphMostly Cloudy
5:51 AM46.0 °F37.9 °F73 %30.23 in9.0 miSE (130°)10.4 mphMostly Cloudy
6:51 AM43.0 °F37.0 °F80 %30.24 in9.0 miESE (110°)6.9 mphScattered Clouds
7:51 AM46.0 °F39.0 °F76 %30.25 in8.0 miEast (100°)6.9 mphScattered Clouds
8:51 AM48.9 °F39.9 °F71 %30.25 in9.0 miEast (100°)10.4 mphPartly Cloudy
9:51 AM51.1 °F41.0 °F68 %30.25 in9.0 miSE (140°)8.1 mphPartly Cloudy
10:51 AM53.1 °F41.0 °F64 %30.26 in9.0 miCalmPartly Cloudy
11:51 AM55.9 °F41.0 °F57 %30.25 in10.0 miCalmPartly Cloudy
12:51 PM59.0 °F42.1 °F53 %30.24 in10.0 miEast (80°)9.2 mphScattered Clouds
1:51 PM60.1 °F42.1 °F51 %30.22 in10.0 miVariable3.5 mphScattered Clouds
2:51 PM60.1 °F42.1 °F51 %30.21 in10.0 miCalmMostly Cloudy
3:51 PM61.0 °F42.1 °F50 %30.20 in10.0 miESE (110°)8.1 mphScattered Clouds
4:51 PM61.0 °F41.0 °F48 %30.19 in10.0 miENE (70°)8.1 mphMostly Cloudy
5:51 PM60.8 °F41.0 °F48 %30.19 in10.0 miENE (70°)8.1 mphScattered Clouds
6:51 PM57.9 °F41.0 °F53 %30.21 in10.0 miENE (70°)6.9 mphScattered Clouds
7:51 PM55.0 °F41.0 °F59 %30.21 in10.0 miENE (70°)6.9 mphScattered Clouds
8:51 PM54.0 °F41.0 °F62 %30.22 in10.0 miENE (70°)4.6 mphPartly Cloudy
9:51 PM53.6 °F41.0 °F62 %30.22 in10.0 miENE (60°)5.8 mphPartly Cloudy
10:51 PM50.0 °F41.0 °F71 %30.22 in10.0 miEast (100°)3.5 mphClear
11:51 PM46.4 °F39.2 °F76 %30.21 in10.0 miESE (120°)3.5 mphClear
Hourly data recorded from KSTL, located miles away from Earth City, Missouri







STORIES FROM OUR PARTNERS